Voltar ao catálogo

DELTA 1 DEB

AtivoPO
NORAD 42637·DEBRIS·🇺🇸 United States

Lançado Jun 12, 1975 de Vandenberg Space Force Base

Loading…

Próximas Passagens (próximas 24 horas)

TLE

ObsoletoSource: Space-Track

Época: Aug 30, 2026, 21:36 UTC

1 42637U 75052LW  26242.90055932  .00000021  00000-0  15112-3 0  9996
2 42637  99.8554 126.8739 0138810 212.8502 146.3928 13.18211304615066

Acompanhe DELTA 1 DEB em tempo real com AllMySat

Download on the App Store